Simultaneous Nadir Overpasses (SNOs) Predictions

Prediction of SNOs between METOP-C and LANDSAT-8 Satellite Orbit:

Table of predicted SNOs for the next 14.0 days since TLE Epoch: 10/26/2024
Index Date (METOP-C) Time (METOP-C) Lat,Lon (METOP-C) SZA (METOP-C ) Date (LANDSAT-8) Time (LANDSAT-8) Lat,Lon (LANDSAT-8) SZA (LANDSAT-8 ) Distance(km) Time Diff (sec)
1 10/27/2024 02:28:28 -81.11, 2.47 83.63 10/27/2024 02:28:37 -81.11, 2.65 83.60 3.22 9
2 10/27/2024 03:19:06 81.14, 170.73 96.51 10/27/2024 03:18:02 81.14, 170.70 96.48 0.65 64
3 10/29/2024 21:12:11 81.09, -98.83 97.25 10/29/2024 21:13:23 81.09, -98.90 97.27 1.26 72
4 10/29/2024 22:02:51 -81.11, 68.97 82.68 10/29/2024 22:02:49 -81.11, 69.08 82.67 1.81 2
5 10/29/2024 22:52:29 81.18, -99.38 100.38 10/29/2024 22:51:21 81.82,-101.42 100.34 79.19 68
6 11/01/2024 16:46:33 81.09, -32.52 98.14 11/01/2024 16:47:33 81.08, -32.55 98.16 0.85 60
7 11/01/2024 17:37:13 -81.11, 135.33 81.79 11/01/2024 17:36:59 -81.11, 135.44 81.78 1.94 14
8 11/04/2024 12:20:55 81.09, 34.02 99.02 11/04/2024 12:21:42 81.10, 34.09 99.05 1.32 47
9 11/04/2024 13:11:34 -81.13,-157.72 80.85 11/04/2024 13:11:08 -81.12,-157.90 80.89 3.13 26
10 11/07/2024 07:55:16 81.11, 100.78 99.90 11/07/2024 07:55:50 81.10, 100.67 99.90 1.81 34



Historial Predications of SNOs between METOP-C and LANDSAT-8
